Temp
13 13 13 13 13 12 12 12 12 12 12 11 11 11 11 11 11 11 11 11 11 11 11 11 11 11 11 11 11 10 10 10 9 9 8 8 8 8 8 7 7 7 7 7 7 7 7 7 7 7 7 7 7 7 7 7 7 7 7 7 7 7 7 7 7 7 8 8 8 8 8 8 8 9 9 9 9 9 9 9 8 8 8 8 8
12 13 13 13 13 12 12 12 12 12 11 11 11 11 11 11 11 11 11 11 11 11 11 11 11 11 11 11 10 10 10 10 9 9 8 8 8 8 8 7 7 7 7 7 7 7 7 7 7 7 7 7 7 7 7 7 7 7 7 7 7 7 7 7 7 7 7 8 8 8 8 8 8 8 9 9 9 9 9 8 8 8 8 8 8
12 12 13 13 13 12 12 12 12 11 11 11 11 11 11 11 11 11 11 11 11 11 11 11 11 11 10 10 10 10 10 10 9 9 8 8 8 8 7 7 7 7 7 7 7 7 7 7 7 7 7 7 7 7 7 7 7 7 7 7 7 7 7 7 7 7 7 7 7 8 8 8 8 8 8 8 9 9 9 8 8 8 8 8 8
12 12 12 12 12 12 12 12 12 11 11 11 11 11 11 11 11 11 11 11 11 11 11 11 10 10 10 10 10 10 10 10 9 9 8 8 8 8 7 7 7 7 7 7 7 7 7 7 7 7 7 7 7 7 7 7 7 7 7 7 7 7 7 7 7 7 7 7 7 7 7 7 8 8 8 8 8 8 8 8 8 8 8 8 8
12 12 12 12 12 12 12 12 12 11 11 11 11 11 11 11 11 11 11 11 11 11 11 10 10 10 10 10 10 10 10 10 9 9 9 8 8 8 7 7 7 7 7 7 7 7 7 7 7 7 7 7 7 7 7 7 7 7 7 7 7 7 7 7 7 7 7 7 7 7 7 7 7 8 8 8 8 8 8 8 8 8 8 8 8
12 12 12 12 12 12 12 12 11 11 11 11 11 11 11 11 10 10 10 11 11 11 10 10 10 10 10 10 10 10 10 10 10 9 9 8 8 8 7 7 7 7 7 7 7 7 7 7 7 7 7 7 7 7 7 7 7 7 7 7 7 7 7 7 7 7 7 7 7 7 7 7 7 7 8 8 8 8 8 8 8 8 8 8 8
12 12 12 12 12 12 12 12 11 11 11 11 11 11 10 10 10 10 10 10 10 10 10 10 10 10 10 10 10 10 10 10 10 9 9 8 8 8 7 7 7 7 7 7 7 7 7 7 7 7 7 7 7 7 7 7 7 7 7 7 7 7 7 7 7 7 7 7 7 7 7 7 7 7 7 8 8 8 8 8 8 8 8 8 7
11 11 11 11 11 11 11 11 11 11 11 11 10 10 10 10 10 10 10 10 10 10 10 10 10 10 10 10 10 10 10 10 10 9 9 9 8 8 7 7 7 7 7 7 7 7 7 7 7 7 7 7 7 7 7 7 7 7 7 7 7 7 7 7 7 7 7 7 7 7 7 7 7 7 7 7 7 8 8 8 8 8 8 7 7
11 11 11 11 11 11 11 11 11 11 10 10 10 10 10 10 10 10 10 10 10 10 10 10 10 10 10 10 10 10 10 10 10 9 9 9 8 8 7 7 7 7 7 7 7 7 7 6 6 7 6 6 7 7 7 7 7 7 7 7 7 7 7 7 7 7 7 7 7 7 7 7 7 7 7 7 7 7 7 7 8 8 8 8 7
11 11 11 10 10 10 10 10 10 10 10 10 10 10 10 10 9 10 10 10 10 10 10 10 10 10 10 10 10 10 10 10 10 9 9 9 8 8 7 7 7 7 7 7 7 7 7 6 6 6 6 6 6 7 7 7 7 7 7 7 7 7 7 7 7 7 7 7 7 7 7 7 7 7 7 7 7 7 7 7 7 7 7 7 7
11 11 11 10 10 10 10 10 10 10 9 9 9 9 9 9 9 9 9 9 10 10 10 10 10 10 10 10 9 9 9 9 9 9 9 9 8 8 8 7 7 7 7 7 7 7 7 6 6 6 6 6 6 6 7 7 7 7 7 7 7 7 7 7 7 7 7 7 7 7 7 7 7 7 7 7 7 7 7 7 7 7 7 7 7
11 11 11 10 10 10 10 10 10 9 9 9 9 9 9 9 9 9 9 9 9 9 10 10 10 10 10 10 9 9 9 9 9 9 9 9 8 8 8 8 7 7 7 7 7 7 7 6 6 6 6 6 6 6 6 7 7 7 7 7 7 7 7 7 7 7 7 7 7 7 7 7 7 7 7 7 7 7 7 7 7 7 7 7 7
11 11 11 11 10 10 10 10 9 9 9 9 9 8 8 8 9 9 9 9 9 9 9 9 10 10 10 10 9 9 9 9 9 9 9 9 8 8 8 8 7 7 7 7 7 7 7 6 6 6 6 6 6 6 6 6 6 7 7 7 7 7 7 7 7 7 7 7 7 7 7 7 7 7 7 7 7 7 7 7 7 7 7 7 7
10 11 10 10 10 10 9 9 9 9 9 8 8 8 8 8 8 8 8 8 8 9 9 9 9 9 9 9 9 9 9 9 9 9 8 8 8 8 8 8 7 7 7 7 7 6 6 6 6 6 6 6 6 6 6 6 6 6 7 7 7 7 7 7 7 7 7 7 7 7 7 7 7 7 7 7 7 7 7 7 7 7 7 7 7
10 10 10 10 10 10 9 9 9 9 8 8 8 8 8 8 8 8 8 8 8 8 8 9 9 9 9 9 9 9 9 9 8 8 8 8 8 8 8 8 8 7 7 7 7 6 6 6 6 6 6 6 6 6 6 6 6 6 7 7 7 7 7 7 7 7 7 7 7 7 7 7 7 7 7 7 7 7 7 7 7 7 7 7 7
10 10 10 10 10 9 9 9 9 8 8 8 7 7 7 7 7 7 7 7 7 8 8 8 8 8 8 8 9 9 8 8 8 8 8 7 7 7 8 8 8 7 7 7 6 6 6 6 6 6 6 6 6 6 6 6 6 6 6 7 7 7 7 7 7 7 7 7 7 7 7 7 7 7 7 7 7 7 7 7 7 7 7 7 7
10 10 10 9 9 9 9 9 8 8 8 7 7 7 7 7 7 7 7 7 7 7 7 7 8 8 8 8 8 8 8 8 7 7 7 7 7 7 7 7 7 7 7 7 6 6 6 6 6 6 6 6 6 6 6 6 6 6 6 6 6 6 7 7 7 7 7 7 7 7 7 7 7 7 7 7 7 7 7 7 7 7 7 7 7
10 9 9 9 9 9 8 8 8 8 7 7 7 6 6 6 6 6 6 6 6 7 7 7 7 7 7 7 8 7 7 7 7 7 6 6 6 6 7 7 7 7 7 7 6 6 6 6 6 6 6 6 6 6 6 6 6 6 6 6 6 6 6 7 6 6 6 7 7 7 7 7 7 7 7 7 7 7 7 7 7 7 7 7 7
9 9 9 9 9 8 8 8 7 7 7 6 6 6 6 6 6 6 6 6 6 6 6 6 6 7 7 7 7 7 7 7 7 6 6 6 6 6 6 6 7 7 6 6 6 6 6 6 6 6 6 6 6 6 6 6 6 6 6 6 6 6 6 6 6 6 6 6 6 6 7 7 7 7 7 7 7 7 7 7 7 7 7 7 7
9 9 9 9 8 8 8 8 7 7 6 6 6 6 6 6 6 6 6 6 6 6 6 6 6 6 6 6 7 7 6 6 6 6 6 6 6 6 6 6 6 7 6 6 6 6 6 6 6 6 6 6 6 6 6 6 6 6 6 6 6 6 6 6 6 6 6 6 6 6 6 6 6 7 7 7 7 7 7 7 7 7 7 7 7
9 9 9 9 8 8 8 7 7 7 6 6 5 5 6 6 5 5 5 5 6 6 6 6 6 6 6 6 6 6 6 6 6 6 6 5 5 6 5 5 6 6 6 6 6 6 5 5 5 5 5 6 6 6 6 6 6 6 6 6 6 6 6 6 6 6 6 6 6 6 6 6 6 6 6 7 7 7 7 7 7 7 7 7 7
9 9 9 8 8 8 7 7 7 6 6 5 5 5 5 5 5 5 5 5 5 5 5 5 5 5 5 6 6 6 6 6 5 5 5 5 5 5 5 5 6 6 6 6 6 6 5 5 5 5 5 5 5 5 5 5 5 6 6 6 6 6 6 6 6 6 6 6 6 6 6 6 6 6 6 6 6 6 6 7 7 7 7 7 7
9 8 8 8 8 7 7 7 7 6 6 6 5 5 5 5 5 5 5 5 5 5 5 5 5 5 5 5 5 6 5 5 5 5 5 5 5 5 5 5 6 6 6 6 6 6 5 5 5 5 5 5 5 5 5 5 5 5 5 5 6 6 6 6 6 6 6 6 6 6 6 6 6 6 6 6 6 6 6 6 6 7 7 7 7
8 8 8 7 7 7 7 7 6 6 6 6 6 5 5 5 5 5 5 5 5 5 5 4 4 5 5 5 5 5 5 5 5 5 5 5 5 4 5 5 6 6 6 5 5 5 5 5 5 5 5 5 5 5 5 5 5 5 5 5 5 6 6 6 6 6 6 6 6 6 6 6 6 6 6 6 6 6 6 6 6 6 7 7 7
8 8 8 7 7 7 7 6 6 6 6 6 5 5 5 5 5 5 5 5 5 5 4 4 4 4 5 5 5 5 5 5 5 5 5 5 5 4 5 5 5 5 5 5 5 5 5 5 5 4 4 4 5 4 4 5 5 5 5 5 5 6 6 6 6 6 6 6 6 6 6 6 6 6 6 6 6 6 6 6 6 6 6 6 6
8 8 7 7 7 7 7 6 6 6 6 5 5 5 5 5 5 5 5 5 4 4 4 4 4 4 5 5 5 5 5 5 5 5 5 5 5 4 5 5 5 5 5 5 5 5 4 5 5 5 4 4 4 4 4 4 5 5 5 5 5 5 5 6 6 6 6 6 6 6 6 6 6 6 6 6 6 6 6 6 6 6 6 6 6
7 7 7 7 7 7 6 6 6 5 6 6 5 5 5 5 5 5 5 5 4 4 4 4 4 4 5 5 5 5 5 5 5 5 5 4 4 4 5 5 5 5 5 5 5 4 4 4 4 4 4 4 4 4 5 4 4 4 4 5 5 5 5 5 5 5 5 5 6 6 6 6 6 6 6 6 6 6 6 6 6 6 6 6 6
7 7 7 7 6 6 6 6 6 6 6 6 5 5 4 4 4 4 4 4 4 4 4 4 4 4 5 5 5 5 5 5 5 4 4 4 4 4 5 5 5 5 5 5 4 4 4 4 4 4 4 4 4 4 4 4 4 4 4 4 4 5 5 5 5 5 5 5 5 5 6 6 6 6 6 6 6 6 6 6 6 6 6 6 6
7 6 6 6 6 6 5 6 6 5 5 5 5 4 4 4 4 4 4 4 4 4 4 3 4 4 4 4 4 4 4 5 4 4 4 4 4 4 4 4 4 4 5 5 4 4 4 4 4 4 4 4 4 4 4 4 4 4 4 4 4 4 5 5 5 5 5 5 5 5 5 5 5 5 5 6 6 6 6 6 5 5 6 6 6
7 6 5 5 5 5 5 5 6 5 5 5 5 4 4 4 4 4 4 4 4 3 3 3 3 4 4 4 4 4 4 4 4 4 4 4 4 4 4 4 4 4 4 4 4 4 4 4 4 4 4 4 4 4 4 4 4 4 4 4 4 4 4 4 4 4 4 4 5 5 5 5 5 5 5 5 5 5 5 5 5 5 5 5 6
7 6 5 5 5 5 5 5 5 5 5 5 4 4 4 4 4 4 4 4 4 3 3 3 3 4 4 4 4 4 4 4 4 4 4 4 4 4 4 4 4 4 4 4 4 4 4 4 4 4 4 4 4 3 4 4 4 4 4 4 4 4 4 4 4 4 4 4 4 4 4 4 4 4 4 5 5 5 5 5 5 5 5 5 5
7 7 6 6 5 5 5 6 5 5 4 4 4 4 4 4 4 4 4 4 4 3 3 3 3 3 3 4 4 4 4 4 4 4 4 4 4 4 4 4 4 4 4 4 4 4 4 4 4 4 4 4 3 3 3 3 3 4 4 4 3 3 3 3 3 4 4 4 4 4 4 4 4 4 4 4 4 4 4 4 4 4 4 4 5
7 6 7 7 6 5 5 5 5 5 4 4 4 4 4 4 4 4 4 4 4 3 3 3 3 3 3 4 3 3 4 4 4 4 4 4 4 4 4 4 4 4 4 4 3 3 3 3 3 4 4 3 3 3 3 3 3 3 4 4 3 3 3 3 3 3 3 4 3 3 3 3 3 3 4 4 4 4 4 4 4 4 4 4 4
7 6 7 7 6 5 5 5 5 5 4 4 4 4 4 4 3 4 4 4 4 4 4 3 3 3 3 4 3 3 4 4 4 4 4 4 4 4 4 4 4 4 4 4 3 3 3 3 3 3 3 3 4 3 3 3 3 3 4 3 3 3 3 3 3 3 3 3 3 3 3 3 3 3 3 3 4 4 4 4 4 4 4 4 4
7 7 7 7 6 5 5 5 5 5 5 4 4 4 3 4 4 4 4 4 4 4 4 4 3 3 3 4 4 4 4 4 4 4 4 4 4 4 4 4 4 4 4 4 4 3 3 3 3 3 3 4 4 4 3 3 3 3 3 3 3 3 3 3 3 3 3 3 3 3 3 3 3 3 3 3 3 3 3 3 3 3 3 3 4
8 8 7 6 6 5 5 5 5 5 5 4 4 4 3 3 4 4 4 4 4 4 4 3 3 3 3 4 4 4 4 4 4 4 4 4 4 4 4 4 4 4 4 4 4 4 3 3 3 3 3 4 4 4 4 3 3 4 3 3 3 3 3 3 3 3 3 2 3 3 3 3 3 3 3 3 3 3 3 3 3 3 3 3 3
8 8 7 6 6 5 5 5 5 5 4 4 4 4 4 3 4 4 4 4 4 3 3 3 3 4 4 4 4 4 4 4 4 4 4 4 4 4 4 4 4 4 4 4 4 4 3 3 3 3 3 4 4 4 3 3 3 4 3 3 3 2 2 3 3 3 2 2 3 3 3 3 3 3 3 3 3 3 3 3 3 3 3 3 3
8 7 7 6 6 5 5 5 5 5 4 4 4 4 4 3 4 4 4 4 4 3 3 3 4 4 4 4 4 4 4 4 4 4 4 4 4 4 4 4 4 4 4 4 4 3 3 3 3 3 3 4 3 3 3 3 3 3 3 3 2 2 3 3 3 3 2 2 3 3 3 3 3 3 3 3 3 3 3 3 3 3 3 3 3
8 7 7 7 6 5 5 5 5 5 5 4 4 4 4 4 4 4 4 4 4 4 4 4 4 4 4 4 4 4 4 4 4 4 4 4 4 4 4 4 4 4 4 4 4 3 3 3 3 3 3 4 3 3 3 3 3 3 3 2 2 2 3 2 2 2 2 2 2 3 3 3 3 3 3 3 3 3 3 3 3 3 3 2 2
7 7 7 6 6 5 5 5 5 5 5 5 5 4 4 4 4 4 4 4 4 4 4 4 4 4 4 4 4 4 4 4 4 4 4 4 4 4 4 4 4 4 4 4 4 3 3 3 3 3 3 3 3 3 3 3 3 3 3 3 2 2 3 3 2 2 2 2 2 3 3 3 3 3 3 3 3 3 3 3 3 3 2 2 2
7 7 7 6 6 5 5 5 5 5 5 5 5 5 5 4 4 4 4 4 4 4 4 4 4 4 4 4 4 4 4 4 4 4 4 4 4 4 4 4 4 4 4 4 4 3 3 3 3 3 3 3 3 3 3 3 3 3 3 3 2 2 3 3 2 2 2 2 2 3 2 3 3 3 3 3 3 2 2 3 3 2 2 2 2
7 7 6 6 6 5 5 5 5 5 5 5 5 5 5 5 5 5 4 4 4 4 4 4 4 4 4 4 4 4 4 4 4 4 4 4 4 4 4 4 4 4 4 4 4 3 3 3 3 3 3 3 3 3 3 3 3 3 3 3 2 2 2 2 2 2 2 2 2 2 2 2 3 3 3 2 2 2 2 2 2 2 2 2 2
7 6 6 6 5 5 5 5 5 5 5 5 4 5 5 5 5 4 4 4 5 5 5 5 5 5 5 5 4 4 4 4 4 4 4 4 4 4 4 4 3 4 4 4 4 3 3 3 3 3 3 3 3 3 3 3 3 3 3 3 2 2 2 2 2 2 2 2 2 2 2 3 3 3 2 2 2 2 2 2 2 2 2 2 2
6 6 6 5 5 5 5 5 5 5 5 4 4 4 5 5 4 4 4 4 4 5 4 4 4 4 4 5 4 4 4 4 4 4 4 4 4 4 4 4 3 3 4 4 3 3 3 3 3 3 3 3 3 3 3 3 3 3 2 2 2 2 2 2 2 2 2 2 2 2 2 2 2 2 2 2 2 2 2 2 2 1 1 2 2
6 6 6 5 5 5 5 5 5 5 5 4 4 4 4 4 4 4 4 4 4 4 4 4 4 4 4 4 4 4 4 4 4 4 4 4 4 4 4 4 3 3 3 3 3 3 3 3 3 3 3 3 3 3 3 3 3 2 2 2 2 2 2 2 2 2 2 2 2 2 2 2 2 2 2 2 2 2 2 2 2 2 1 1 1
6 6 5 5 5 5 5 4 4 5 5 4 4 4 4 4 4 4 4 4 4 4 4 4 4 4 4 4 4 4 4 4 4 4 4 3 3 3 3 3 3 3 3 3 3 3 3 3 3 3 3 3 2 3 3 3 3 2 2 2 2 2 2 2 2 2 2 2 2 2 2 2 2 2 2 2 2 2 2 2 2 2 1 1 1
6 6 5 5 5 4 4 4 4 4 5 5 4 4 4 4 4 4 4 4 4 4 4 4 4 4 4 4 4 4 4 4 4 4 4 4 3 3 3 3 3 3 3 3 3 3 3 3 3 3 3 3 2 2 2 2 2 2 2 2 2 2 2 2 2 2 2 2 2 2 2 2 2 2 2 2 2 1 1 1 2 2 1 1 1
6 6 5 5 4 4 4 4 4 4 4 5 4 4 4 4 4 4 4 4 4 4 4 4 4 4 4 4 4 4 4 4 4 4 4 4 4 3 3 3 3 3 3 3 3 3 3 3 3 3 3 3 2 2 2 2 2 2 2 2 2 2 2 2 2 2 1 1 1 1 1 2 2 2 2 2 1 1 1 1 1 1 1 1 1
6 6 5 4 4 4 4 4 4 4 4 4 4 4 4 4 4 4 4 4 4 4 4 3 3 3 3 3 3 3 3 3 3 4 4 4 4 4 3 3 3 2 2 3 3 3 3 3 2 2 2 2 2 2 2 2 2 2 2 2 2 2 2 2 2 2 1 1 1 1 1 1 1 2 2 1 1 1 1 1 1 1 1 1 1
6 5 5 4 4 4 4 4 4 4 4 4 4 4 4 4 4 4 4 4 4 4 3 3 3 3 3 3 3 3 3 3 3 4 4 4 4 4 4 3 3 3 2 2 2 2 2 2 2 2 2 2 2 2 2 2 2 2 2 2 1 1 2 2 2 2 1 1 1 1 1 1 1 2 2 1 1 1 1 1 1 1 1 1 1
6 5 5 4 4 4 4 4 4 4 4 4 4 4 4 4 3 3 3 3 3 3 3 3 3 3 3 3 3 3 3 3 3 3 4 4 4 4 4 3 3 3 2 2 2 2 2 2 2 2 2 2 2 2 2 2 2 2 2 1 1 1 1 1 1 1 1 1 1 1 1 1 1 1 1 1 1 1 1 1 1 1 1 1 1
Height
3150 3152 3153 3155 3155 3156 3158 3159 3159 3160 3160 3161 3161 3162 3162 3163 3163 3164 3164 3164 3165 3165 3165 3166 3166 3166 3167 3167 3167 3166 3166 3166 3166 3167 3167 3168 3169 3170 3170 3171 3172 3172 3173 3173 3174 3174 3175 3175 3174 3174 3174 3174 3173 3173 3173 3172 3171 3171 3170 3170 3170 3170 3170 3170 3169 3169 3168 3167 3165 3163 3162 3161 3160 3159 3158 3157 3156 3155 3155 3154 3155 3155 3154 3154 3155
3151 3152 3153 3154 3155 3155 3157 3158 3159 3159 3160 3161 3161 3162 3162 3162 3163 3164 3164 3164 3165 3165 3166 3166 3166 3166 3167 3167 3167 3167 3166 3167 3167 3167 3168 3169 3170 3171 3171 3172 3172 3173 3173 3174 3175 3175 3176 3176 3175 3175 3175 3175 3174 3174 3174 3173 3173 3172 3172 3172 3172 3172 3172 3171 3171 3171 3169 3168 3167 3165 3164 3163 3162 3161 3160 3159 3158 3157 3157 3156 3157 3157 3156 3156 3156
3151 3152 3154 3154 3154 3155 3156 3157 3158 3159 3159 3160 3161 3161 3162 3162 3163 3163 3164 3164 3165 3165 3166 3166 3166 3166 3166 3167 3167 3167 3167 3167 3167 3168 3168 3169 3170 3171 3172 3173 3173 3174 3174 3175 3175 3176 3176 3176 3176 3176 3175 3175 3175 3175 3175 3175 3175 3174 3174 3174 3174 3174 3173 3173 3173 3172 3171 3170 3169 3167 3166 3165 3164 3163 3162 3161 3160 3159 3159 3159 3159 3158 3157 3157 3158
3151 3152 3153 3154 3154 3154 3155 3156 3157 3158 3159 3160 3160 3161 3162 3162 3162 3163 3164 3164 3165 3165 3165 3166 3166 3166 3166 3167 3167 3167 3167 3167 3167 3168 3168 3169 3170 3171 3172 3173 3174 3174 3175 3175 3176 3177 3177 3177 3177 3177 3176 3176 3176 3176 3176 3176 3176 3176 3176 3176 3175 3175 3175 3175 3174 3174 3173 3172 3171 3169 3167 3167 3167 3165 3164 3163 3162 3162 3161 3161 3161 3160 3159 3159 3160
3151 3152 3153 3153 3153 3154 3155 3156 3157 3158 3159 3159 3160 3161 3161 3161 3162 3162 3163 3164 3165 3165 3165 3166 3166 3166 3166 3166 3167 3167 3167 3167 3167 3168 3169 3169 3170 3171 3172 3173 3174 3175 3176 3176 3177 3177 3178 3177 3177 3177 3177 3177 3177 3177 3178 3178 3177 3177 3177 3177 3177 3177 3176 3176 3176 3175 3174 3173 3172 3171 3169 3169 3169 3168 3167 3165 3164 3164 3164 3163 3163 3162 3162 3162 3161
3151 3152 3152 3153 3153 3154 3155 3155 3156 3157 3158 3159 3159 3160 3160 3160 3161 3161 3162 3164 3165 3165 3165 3165 3166 3166 3166 3167 3167 3167 3167 3168 3168 3168 3169 3170 3170 3171 3172 3174 3174 3175 3176 3177 3177 3178 3178 3178 3178 3178 3178 3178 3178 3178 3179 3179 3179 3178 3178 3178 3178 3178 3178 3178 3178 3177 3176 3175 3174 3173 3171 3171 3171 3171 3169 3168 3167 3166 3166 3165 3165 3164 3164 3164 3163
3151 3151 3152 3152 3153 3154 3154 3155 3156 3156 3157 3158 3158 3159 3159 3160 3160 3161 3162 3163 3164 3165 3165 3165 3166 3166 3166 3167 3167 3167 3167 3168 3168 3169 3169 3170 3170 3172 3173 3174 3175 3175 3176 3177 3178 3178 3179 3178 3178 3178 3179 3179 3179 3179 3180 3180 3180 3179 3179 3180 3180 3180 3180 3179 3179 3178 3177 3177 3176 3175 3173 3173 3173 3173 3172 3171 3170 3169 3168 3167 3167 3167 3166 3166 3166
3150 3151 3151 3151 3152 3153 3154 3154 3155 3156 3157 3157 3158 3158 3159 3159 3160 3161 3162 3163 3164 3165 3165 3166 3166 3166 3166 3167 3167 3167 3168 3168 3168 3169 3169 3170 3170 3172 3173 3174 3175 3176 3177 3178 3178 3179 3179 3179 3178 3179 3179 3179 3180 3180 3181 3181 3181 3181 3181 3181 3181 3181 3181 3181 3180 3180 3179 3178 3177 3176 3175 3175 3175 3175 3174 3173 3172 3172 3171 3170 3169 3169 3168 3168 3168
3150 3150 3151 3151 3152 3153 3153 3154 3155 3155 3156 3157 3157 3158 3158 3158 3159 3160 3161 3162 3164 3164 3165 3165 3166 3166 3166 3167 3167 3167 3168 3168 3168 3169 3169 3170 3171 3172 3173 3174 3175 3176 3177 3178 3179 3179 3180 3179 3179 3179 3179 3180 3180 3181 3181 3181 3181 3181 3182 3182 3182 3182 3182 3182 3181 3181 3180 3179 3179 3178 3177 3176 3177 3177 3176 3175 3175 3174 3173 3173 3172 3171 3171 3170 3170
3149 3150 3150 3151 3151 3152 3153 3154 3154 3155 3156 3156 3157 3157 3158 3158 3159 3160 3161 3162 3163 3163 3164 3165 3165 3166 3166 3166 3167 3167 3167 3168 3168 3169 3169 3170 3170 3171 3172 3173 3175 3176 3177 3178 3178 3179 3180 3180 3179 3180 3180 3180 3181 3181 3182 3182 3182 3182 3183 3183 3184 3184 3183 3183 3183 3182 3182 3181 3180 3180 3179 3178 3178 3179 3178 3177 3177 3176 3176 3175 3175 3174 3173 3173 3172
3149 3150 3150 3150 3151 3152 3153 3153 3154 3155 3155 3156 3156 3157 3157 3158 3159 3160 3160 3161 3162 3163 3163 3164 3165 3166 3166 3166 3166 3167 3167 3168 3168 3169 3169 3170 3170 3171 3172 3173 3174 3175 3176 3177 3178 3179 3180 3180 3180 3180 3180 3181 3181 3182 3182 3182 3183 3183 3183 3184 3185 3185 3184 3184 3184 3183 3183 3182 3181 3181 3181 3180 3180 3180 3179 3179 3179 3178 3178 3177 3177 3176 3176 3175 3175
3149 3149 3150 3150 3151 3152 3153 3153 3154 3154 3155 3155 3156 3157 3157 3157 3158 3159 3160 3160 3161 3162 3163 3164 3165 3165 3166 3166 3166 3167 3167 3168 3168 3168 3169 3169 3170 3171 3172 3173 3174 3175 3176 3177 3178 3179 3180 3180 3180 3180 3180 3181 3182 3182 3182 3182 3183 3183 3184 3184 3185 3185 3185 3185 3185 3185 3184 3183 3182 3182 3182 3181 3181 3181 3181 3181 3180 3180 3180 3179 3179 3178 3178 3178 3177
3148 3149 3149 3150 3151 3152 3152 3153 3154 3154 3155 3155 3156 3156 3157 3157 3158 3159 3159 3160 3160 3161 3162 3163 3164 3164 3165 3165 3166 3166 3167 3167 3168 3168 3168 3169 3170 3171 3172 3173 3174 3174 3175 3176 3177 3178 3179 3180 3180 3180 3180 3181 3182 3182 3182 3183 3183 3183 3184 3185 3186 3186 3186 3186 3186 3186 3185 3184 3184 3183 3183 3183 3183 3182 3182 3182 3182 3182 3181 3181 3181 3180 3180 3179 3179
3148 3148 3149 3150 3151 3151 3152 3152 3153 3153 3154 3155 3155 3156 3156 3156 3157 3158 3158 3159 3159 3160 3161 3162 3163 3163 3164 3165 3165 3166 3167 3167 3167 3168 3168 3169 3169 3170 3171 3172 3173 3174 3175 3176 3177 3177 3178 3179 3179 3180 3180 3180 3181 3182 3182 3183 3183 3183 3184 3185 3186 3186 3186 3186 3186 3187 3187 3186 3185 3185 3184 3184 3184 3184 3183 3183 3183 3183 3183 3183 3182 3182 3181 3181 3181
3148 3148 3149 3150 3150 3151 3151 3152 3152 3153 3153 3154 3154 3154 3155 3155 3156 3156 3157 3158 3159 3159 3160 3161 3162 3163 3163 3164 3165 3166 3166 3166 3167 3167 3168 3169 3169 3170 3171 3172 3173 3173 3174 3175 3176 3177 3177 3178 3179 3179 3180 3180 3181 3181 3182 3182 3182 3183 3184 3185 3186 3187 3187 3187 3187 3187 3187 3187 3186 3186 3186 3186 3185 3185 3185 3185 3185 3185 3184 3184 3184 3184 3183 3183 3182
3147 3148 3149 3149 3150 3150 3151 3151 3151 3152 3152 3153 3153 3153 3153 3154 3154 3155 3156 3157 3158 3158 3159 3160 3161 3162 3162 3163 3164 3165 3165 3166 3166 3167 3168 3169 3169 3170 3171 3172 3172 3173 3173 3174 3175 3176 3177 3177 3178 3179 3179 3180 3180 3180 3181 3182 3182 3183 3184 3184 3185 3186 3187 3187 3187 3187 3188 3187 3187 3187 3187 3187 3186 3186 3186 3186 3185 3186 3186 3185 3185 3185 3185 3184 3184
3147 3148 3149 3149 3149 3149 3149 3150 3150 3151 3151 3151 3152 3152 3152 3153 3153 3154 3155 3156 3156 3157 3158 3159 3160 3161 3162 3162 3163 3164 3164 3165 3166 3166 3167 3168 3169 3170 3171 3172 3172 3172 3172 3173 3174 3175 3176 3177 3177 3178 3179 3179 3179 3180 3181 3181 3181 3182 3183 3184 3185 3186 3187 3187 3187 3187 3187 3188 3188 3187 3187 3187 3187 3187 3187 3187 3186 3186 3187 3186 3186 3186 3186 3185 3185
3147 3148 3148 3148 3148 3148 3148 3149 3149 3150 3150 3150 3151 3151 3151 3152 3152 3153 3154 3155 3155 3156 3157 3158 3159 3160 3161 3162 3162 3163 3163 3164 3165 3166 3167 3167 3168 3169 3171 3172 3172 3172 3172 3172 3173 3174 3175 3175 3176 3177 3178 3178 3179 3179 3180 3180 3181 3181 3182 3183 3184 3186 3186 3187 3187 3187 3187 3188 3188 3188 3188 3188 3188 3188 3188 3188 3188 3187 3187 3187 3187 3187 3187 3187 3186
3146 3147 3147 3147 3147 3147 3147 3148 3148 3148 3149 3149 3150 3150 3150 3151 3151 3152 3153 3154 3154 3155 3156 3157 3158 3160 3160 3161 3161 3162 3163 3163 3164 3165 3166 3167 3168 3169 3170 3172 3173 3172 3172 3172 3172 3173 3174 3174 3175 3176 3177 3178 3178 3178 3179 3179 3180 3180 3181 3183 3184 3185 3186 3186 3187 3187 3187 3187 3188 3188 3188 3188 3188 3188 3188 3188 3188 3188 3188 3188 3188 3188 3188 3188 3187
3146 3146 3146 3146 3146 3146 3146 3147 3147 3147 3148 3148 3149 3149 3150 3150 3151 3151 3152 3153 3154 3155 3156 3157 3158 3159 3160 3161 3161 3162 3163 3163 3164 3165 3166 3167 3168 3168 3169 3171 3173 3172 3172 3171 3172 3172 3172 3173 3174 3175 3176 3176 3177 3177 3178 3178 3179 3179 3180 3183 3184 3185 3185 3186 3186 3187 3187 3187 3188 3188 3188 3188 3188 3188 3189 3189 3189 3189 3189 3189 3189 3189 3189 3189 3188
3145 3145 3145 3145 3145 3145 3145 3146 3146 3146 3147 3147 3148 3149 3149 3150 3151 3151 3152 3153 3154 3155 3156 3157 3158 3159 3160 3160 3161 3162 3162 3163 3164 3165 3166 3166 3167 3167 3168 3171 3172 3172 3171 3171 3171 3171 3171 3172 3172 3173 3174 3175 3175 3176 3177 3177 3178 3177 3179 3182 3184 3185 3185 3185 3186 3186 3187 3187 3187 3188 3188 3188 3189 3189 3189 3189 3189 3189 3189 3190 3190 3190 3189 3189 3189
3144 3145 3145 3144 3144 3144 3145 3145 3145 3146 3146 3146 3147 3148 3149 3149 3150 3151 3152 3153 3153 3155 3156 3156 3157 3158 3159 3160 3161 3162 3162 3163 3164 3164 3165 3165 3166 3166 3168 3170 3171 3171 3171 3170 3170 3170 3170 3170 3171 3171 3172 3173 3174 3175 3175 3176 3177 3176 3177 3181 3183 3184 3185 3185 3185 3186 3186 3187 3187 3187 3188 3188 3188 3189 3189 3189 3189 3190 3190 3190 3190 3190 3190 3190 3189
3144 3144 3144 3144 3144 3144 3145 3145 3145 3145 3145 3145 3146 3146 3147 3148 3150 3151 3151 3152 3153 3154 3155 3155 3156 3158 3159 3159 3160 3161 3162 3162 3163 3163 3164 3164 3165 3166 3167 3169 3170 3170 3170 3169 3169 3169 3169 3169 3169 3170 3170 3171 3172 3173 3174 3175 3175 3174 3176 3179 3181 3183 3183 3184 3184 3185 3186 3186 3186 3187 3187 3187 3188 3188 3189 3189 3189 3189 3189 3190 3190 3190 3190 3190 3189
3143 3143 3143 3143 3143 3144 3144 3144 3144 3144 3144 3144 3144 3145 3145 3147 3149 3150 3150 3151 3152 3153 3154 3155 3156 3157 3158 3159 3159 3160 3161 3161 3162 3162 3163 3163 3164 3165 3167 3169 3169 3169 3168 3168 3168 3167 3167 3168 3168 3168 3169 3170 3171 3172 3173 3173 3174 3173 3173 3177 3180 3182 3183 3183 3184 3185 3185 3185 3186 3186 3186 3186 3187 3188 3188 3188 3189 3189 3189 3189 3189 3189 3189 3189 3189
3142 3143 3143 3143 3143 3143 3143 3143 3143 3143 3143 3143 3143 3143 3144 3147 3149 3149 3149 3150 3151 3152 3153 3154 3155 3156 3157 3158 3159 3160 3160 3161 3161 3161 3162 3163 3164 3165 3167 3168 3168 3167 3167 3167 3166 3166 3166 3166 3166 3167 3168 3168 3169 3170 3170 3171 3172 3170 3171 3175 3179 3181 3182 3183 3183 3184 3184 3185 3185 3185 3185 3186 3186 3187 3187 3188 3188 3188 3188 3188 3188 3189 3189 3189 3189
3141 3142 3142 3142 3142 3142 3142 3142 3142 3142 3142 3142 3142 3143 3144 3147 3148 3148 3148 3149 3150 3151 3153 3153 3155 3156 3157 3158 3158 3159 3160 3160 3160 3160 3161 3163 3164 3165 3166 3166 3166 3166 3165 3165 3165 3165 3165 3165 3165 3166 3166 3167 3167 3167 3168 3169 3170 3169 3170 3175 3178 3180 3181 3182 3182 3183 3183 3184 3184 3184 3185 3185 3186 3186 3186 3186 3187 3187 3187 3187 3187 3188 3188 3188 3188
3141 3141 3141 3141 3141 3141 3141 3140 3140 3141 3141 3141 3142 3143 3145 3147 3146 3146 3148 3149 3149 3150 3152 3153 3154 3156 3157 3157 3158 3159 3159 3160 3160 3160 3161 3163 3164 3164 3165 3165 3164 3164 3164 3164 3164 3164 3164 3164 3164 3165 3165 3166 3166 3167 3168 3169 3169 3169 3171 3174 3176 3178 3179 3180 3181 3181 3182 3182 3183 3183 3184 3184 3185 3185 3185 3185 3185 3185 3186 3186 3187 3187 3187 3187 3187
3140 3140 3141 3140 3140 3140 3139 3139 3139 3140 3140 3141 3141 3142 3144 3146 3146 3146 3148 3149 3149 3149 3151 3152 3154 3155 3156 3157 3157 3158 3159 3159 3159 3160 3161 3162 3163 3163 3163 3163 3163 3163 3163 3163 3163 3163 3163 3163 3164 3164 3164 3165 3167 3167 3169 3169 3170 3170 3170 3173 3175 3176 3178 3178 3179 3179 3180 3180 3181 3182 3182 3183 3183 3184 3184 3184 3184 3184 3185 3185 3185 3186 3186 3185 3186
3139 3139 3140 3140 3139 3139 3139 3138 3138 3138 3139 3140 3141 3141 3144 3146 3146 3147 3147 3148 3148 3149 3150 3152 3153 3155 3155 3156 3157 3157 3158 3158 3159 3160 3161 3162 3162 3162 3162 3162 3162 3162 3162 3162 3161 3162 3162 3163 3163 3163 3164 3166 3167 3167 3168 3169 3169 3170 3170 3172 3174 3175 3176 3176 3177 3177 3178 3179 3179 3180 3181 3182 3182 3182 3182 3183 3183 3183 3183 3184 3184 3184 3184 3184 3184
3138 3139 3140 3139 3139 3139 3139 3138 3137 3137 3138 3140 3141 3142 3144 3145 3145 3146 3146 3147 3147 3148 3149 3151 3152 3154 3155 3155 3156 3157 3157 3157 3158 3159 3160 3161 3161 3161 3161 3161 3161 3161 3161 3161 3161 3161 3162 3162 3162 3163 3164 3166 3166 3167 3168 3168 3169 3170 3170 3171 3172 3173 3174 3174 3175 3176 3177 3177 3178 3179 3180 3180 3180 3180 3181 3181 3182 3182 3182 3182 3182 3182 3182 3183 3183
3138 3139 3140 3139 3138 3139 3138 3137 3136 3136 3137 3139 3141 3142 3143 3144 3144 3145 3145 3146 3147 3147 3148 3150 3151 3153 3154 3155 3155 3156 3156 3157 3158 3158 3159 3160 3160 3160 3160 3161 3161 3161 3160 3160 3160 3161 3161 3162 3162 3163 3164 3165 3165 3166 3168 3168 3169 3169 3170 3170 3171 3172 3172 3173 3174 3175 3175 3176 3177 3178 3178 3178 3178 3179 3179 3180 3180 3180 3180 3180 3180 3180 3180 3181 3181
3139 3140 3140 3139 3138 3138 3137 3135 3135 3134 3135 3138 3140 3140 3141 3142 3143 3143 3144 3145 3145 3146 3148 3149 3151 3152 3154 3154 3155 3155 3155 3156 3157 3158 3158 3159 3159 3159 3160 3160 3160 3160 3160 3160 3160 3160 3161 3161 3162 3162 3163 3164 3165 3166 3168 3169 3169 3169 3169 3170 3170 3171 3171 3172 3173 3173 3174 3176 3177 3177 3176 3177 3177 3178 3178 3178 3178 3178 3178 3178 3178 3179 3179 3179 3179
3138 3139 3139 3137 3136 3136 3135 3134 3134 3133 3135 3137 3138 3138 3140 3141 3142 3143 3143 3144 3145 3145 3146 3148 3150 3151 3153 3154 3154 3154 3155 3156 3156 3156 3157 3158 3158 3158 3159 3159 3159 3159 3159 3159 3159 3160 3160 3161 3161 3162 3162 3164 3164 3165 3167 3168 3168 3169 3169 3169 3169 3170 3170 3170 3171 3173 3175 3176 3176 3174 3174 3175 3176 3176 3176 3176 3176 3177 3177 3177 3177 3177 3177 3177 3178
3136 3137 3136 3135 3134 3133 3133 3132 3133 3133 3134 3136 3137 3138 3140 3140 3141 3142 3143 3144 3144 3144 3145 3147 3148 3150 3152 3153 3153 3154 3154 3155 3155 3155 3156 3156 3157 3157 3158 3158 3158 3158 3158 3158 3158 3159 3160 3161 3161 3161 3162 3164 3164 3165 3166 3167 3167 3168 3169 3168 3168 3169 3169 3168 3170 3174 3176 3175 3173 3173 3174 3174 3174 3174 3174 3174 3175 3175 3175 3175 3176 3176 3176 3176 3176
3134 3134 3134 3132 3131 3132 3132 3132 3133 3133 3134 3135 3135 3137 3139 3140 3140 3141 3142 3144 3144 3144 3145 3147 3148 3149 3151 3152 3153 3153 3154 3154 3154 3155 3155 3155 3156 3156 3157 3157 3157 3158 3158 3158 3158 3158 3160 3160 3161 3161 3161 3163 3164 3165 3166 3166 3167 3168 3167 3167 3167 3168 3167 3167 3172 3176 3175 3173 3171 3172 3173 3173 3173 3173 3173 3173 3174 3174 3174 3174 3174 3174 3174 3174 3174
3133 3132 3130 3129 3129 3131 3132 3132 3132 3132 3133 3133 3134 3136 3138 3139 3140 3141 3143 3144 3144 3144 3145 3146 3147 3149 3150 3151 3152 3152 3153 3153 3153 3154 3154 3154 3155 3156 3156 3156 3156 3157 3157 3158 3158 3158 3159 3160 3160 3160 3161 3163 3164 3164 3164 3165 3167 3167 3166 3166 3167 3167 3166 3168 3174 3175 3173 3171 3171 3172 3172 3172 3172 3172 3172 3173 3173 3173 3173 3173 3173 3173 3173 3173 3173
3131 3130 3129 3128 3129 3130 3131 3131 3131 3131 3132 3133 3134 3136 3137 3138 3140 3141 3142 3143 3144 3144 3145 3146 3147 3148 3150 3150 3150 3151 3151 3152 3152 3152 3153 3153 3154 3154 3155 3155 3156 3156 3157 3158 3158 3158 3159 3159 3160 3160 3161 3162 3163 3163 3164 3165 3166 3166 3165 3166 3166 3166 3166 3170 3173 3173 3172 3171 3170 3171 3172 3172 3172 3172 3172 3172 3172 3172 3172 3172 3172 3172 3171 3171 3171
3129 3128 3128 3129 3129 3130 3131 3131 3131 3131 3132 3133 3134 3135 3137 3138 3140 3141 3142 3143 3143 3144 3145 3146 3147 3148 3149 3149 3149 3150 3150 3151 3151 3151 3152 3152 3153 3153 3154 3154 3155 3156 3157 3157 3158 3158 3158 3159 3160 3160 3161 3162 3163 3163 3164 3164 3165 3165 3166 3166 3166 3166 3166 3169 3171 3171 3171 3171 3171 3171 3171 3172 3172 3171 3172 3171 3171 3171 3171 3171 3171 3170 3170 3170 3170
3128 3128 3128 3129 3129 3130 3130 3131 3131 3131 3132 3133 3134 3135 3137 3139 3140 3141 3142 3143 3143 3144 3145 3146 3146 3147 3148 3148 3148 3148 3149 3150 3150 3150 3151 3152 3152 3152 3153 3154 3154 3155 3156 3156 3157 3157 3158 3160 3160 3160 3161 3162 3163 3163 3163 3164 3164 3165 3165 3166 3166 3166 3166 3168 3170 3170 3170 3170 3170 3170 3171 3171 3171 3171 3171 3171 3171 3171 3171 3170 3170 3170 3170 3169 3169
3128 3127 3127 3128 3129 3130 3130 3131 3131 3131 3132 3133 3134 3136 3137 3139 3141 3141 3142 3143 3143 3144 3145 3145 3146 3147 3147 3147 3147 3147 3148 3149 3150 3150 3151 3151 3151 3152 3153 3154 3154 3155 3155 3156 3156 3157 3158 3159 3160 3160 3161 3162 3163 3163 3163 3163 3164 3165 3165 3165 3166 3165 3166 3167 3169 3169 3169 3169 3170 3170 3171 3171 3171 3171 3171 3171 3171 3171 3170 3170 3169 3169 3169 3169 3168
3127 3127 3127 3127 3128 3130 3131 3131 3131 3132 3133 3134 3135 3136 3138 3140 3141 3142 3143 3143 3144 3144 3145 3146 3146 3146 3146 3146 3146 3147 3147 3148 3149 3150 3150 3151 3151 3152 3153 3153 3154 3154 3155 3155 3156 3156 3157 3158 3159 3160 3160 3161 3162 3163 3162 3163 3164 3165 3165 3165 3165 3165 3166 3167 3168 3168 3168 3169 3169 3170 3170 3170 3171 3171 3171 3171 3170 3170 3170 3169 3169 3169 3168 3168 3167
3126 3126 3127 3128 3129 3130 3131 3131 3132 3132 3133 3134 3135 3137 3139 3141 3142 3143 3144 3144 3145 3145 3146 3147 3146 3146 3146 3145 3146 3146 3147 3147 3148 3148 3150 3151 3151 3151 3152 3153 3153 3154 3154 3155 3156 3156 3157 3158 3158 3159 3160 3160 3161 3162 3162 3163 3164 3164 3165 3165 3165 3165 3166 3166 3166 3166 3167 3168 3169 3170 3170 3170 3170 3170 3170 3170 3170 3169 3169 3169 3169 3168 3168 3167 3166
3125 3126 3127 3128 3129 3130 3131 3131 3132 3133 3133 3135 3136 3138 3140 3141 3142 3143 3144 3145 3146 3146 3147 3147 3147 3146 3146 3145 3145 3146 3146 3147 3147 3148 3149 3150 3150 3151 3151 3152 3152 3153 3154 3155 3156 3156 3157 3157 3157 3158 3159 3160 3161 3161 3162 3163 3163 3164 3164 3164 3164 3165 3165 3165 3164 3165 3166 3168 3169 3169 3170 3170 3170 3170 3169 3169 3169 3169 3169 3169 3168 3168 3167 3167 3166
3125 3126 3127 3128 3129 3130 3131 3132 3133 3133 3134 3135 3137 3139 3140 3141 3142 3143 3144 3145 3146 3146 3147 3147 3147 3147 3146 3146 3146 3146 3146 3147 3147 3148 3149 3149 3150 3150 3150 3150 3151 3152 3153 3154 3155 3156 3156 3156 3157 3158 3159 3159 3160 3161 3162 3162 3163 3163 3163 3163 3164 3164 3164 3164 3164 3165 3166 3168 3168 3169 3169 3169 3169 3169 3169 3169 3168 3168 3168 3168 3168 3167 3167 3166 3166
3125 3126 3127 3128 3130 3131 3132 3132 3133 3134 3135 3136 3137 3139 3140 3141 3142 3142 3143 3145 3146 3146 3147 3147 3148 3147 3147 3147 3147 3147 3147 3147 3147 3147 3148 3148 3149 3149 3149 3149 3151 3152 3152 3154 3155 3156 3156 3156 3156 3157 3158 3159 3160 3160 3161 3161 3162 3162 3163 3163 3163 3164 3164 3164 3164 3165 3167 3168 3168 3169 3170 3169 3169 3169 3169 3169 3169 3169 3168 3168 3167 3167 3166 3166 3165
3125 3126 3128 3129 3130 3131 3132 3133 3134 3135 3136 3137 3139 3140 3141 3142 3143 3143 3144 3145 3146 3146 3147 3148 3148 3148 3148 3147 3147 3147 3148 3148 3147 3147 3147 3148 3148 3149 3149 3149 3150 3151 3152 3153 3154 3155 3156 3155 3156 3157 3158 3158 3159 3160 3160 3160 3161 3161 3162 3162 3163 3164 3163 3164 3164 3165 3167 3168 3168 3169 3169 3169 3169 3169 3169 3169 3169 3169 3168 3167 3166 3166 3166 3165 3165
3125 3126 3127 3128 3129 3130 3132 3133 3134 3136 3137 3139 3140 3141 3142 3143 3144 3145 3145 3146 3146 3147 3147 3148 3148 3148 3148 3148 3148 3148 3148 3148 3148 3147 3147 3147 3148 3148 3149 3149 3150 3151 3152 3152 3153 3154 3155 3155 3155 3156 3157 3157 3158 3159 3159 3160 3160 3161 3161 3162 3163 3163 3163 3163 3164 3164 3166 3167 3168 3168 3168 3169 3169 3169 3168 3168 3168 3167 3166 3165 3165 3165 3165 3164 3164
3124 3126 3127 3128 3129 3130 3131 3133 3134 3136 3138 3140 3141 3142 3143 3144 3145 3145 3146 3146 3147 3148 3148 3149 3149 3149 3148 3148 3148 3148 3148 3148 3148 3147 3147 3146 3147 3147 3148 3149 3149 3150 3151 3152 3153 3154 3154 3154 3154 3155 3156 3157 3157 3158 3158 3159 3160 3160 3161 3162 3162 3162 3163 3163 3163 3163 3164 3166 3167 3168 3168 3168 3168 3167 3168 3168 3167 3166 3165 3164 3164 3164 3164 3164 3164
3124 3125 3126 3127 3129 3130 3131 3133 3135 3136 3138 3140 3141 3142 3144 3145 3145 3146 3146 3147 3148 3148 3149 3149 3149 3149 3149 3148 3148 3148 3148 3148 3148 3147 3147 3146 3146 3146 3147 3147 3148 3149 3150 3151 3153 3153 3154 3154 3155 3155 3156 3156 3156 3157 3158 3159 3159 3160 3160 3161 3162 3162 3162 3163 3163 3162 3163 3164 3165 3166 3167 3168 3167 3166 3167 3167 3166 3165 3164 3164 3164 3164 3164 3163 3163
3123 3125 3126 3127 3128 3130 3132 3133 3135 3136 3138 3139 3141 3142 3143 3145 3146 3146 3147 3147 3148 3148 3149 3149 3149 3149 3149 3148 3148 3147 3147 3147 3147 3147 3147 3147 3146 3146 3146 3146 3147 3148 3149 3150 3152 3153 3153 3154 3154 3155 3155 3156 3156 3157 3158 3158 3159 3159 3160 3160 3161 3161 3162 3163 3163 3162 3162 3163 3164 3164 3165 3167 3167 3166 3166 3166 3165 3164 3164 3164 3164 3164 3164 3163 3163
3123 3124 3125 3126 3128 3130 3132 3133 3135 3137 3138 3139 3141 3142 3144 3145 3146 3146 3147 3147 3147 3148 3148 3148 3148 3148 3148 3148 3148 3147 3146 3147 3147 3147 3147 3147 3146 3146 3146 3146 3146 3147 3147 3148 3150 3151 3152 3153 3153 3154 3154 3155 3156 3156 3157 3157 3158 3158 3159 3160 3160 3161 3161 3162 3163 3163 3163 3163 3164 3164 3164 3165 3167 3166 3165 3165 3165 3164 3164 3164 3164 3164 3164 3164 3164
Wind_Speed
10 11 10 10 11 11 11 11 12 12 12 11 10 10 11 11 12 12 12 12 11 10 8 8 7 6 5 5 5 6 8 10 12 13 14 14 15 15 15 14 13 12 12 11 12 13 14 13 13 13 14 14 14 14 14 15 16 17 17 17 18 18 18 18 19 19 21 22 24 27 27 24 22 21 21 21 20 19 20 20 18 16 16 16 16
8 8 9 11 12 12 11 11 12 13 13 12 11 11 11 12 13 13 13 13 12 11 9 9 8 7 6 6 6 6 8 10 13 14 14 14 15 15 14 14 13 12 12 12 12 13 13 13 13 13 13 13 13 13 14 14 15 16 16 17 17 17 18 18 18 19 21 23 25 28 29 27 24 23 22 23 22 21 21 21 19 17 18 18 17
6 6 9 11 12 12 12 12 12 12 13 13 12 11 12 13 13 13 14 15 14 12 10 10 9 8 8 7 7 7 8 10 13 14 15 15 15 15 14 14 13 13 12 12 12 13 13 13 13 12 12 12 12 12 13 13 14 15 15 16 16 17 18 18 18 20 21 23 25 27 29 29 27 25 24 23 24 23 22 22 20 19 19 19 17
6 7 9 12 12 13 12 12 12 12 13 13 13 12 12 13 14 15 16 16 15 14 12 12 11 10 9 8 8 8 8 10 12 14 15 15 16 15 15 14 14 13 12 12 12 13 13 13 13 12 11 11 11 11 11 12 13 14 15 16 16 17 17 18 18 20 21 23 24 27 29 29 28 28 26 25 24 24 23 23 22 20 20 19 18
7 7 8 11 12 12 12 11 11 12 13 13 13 12 13 14 15 16 17 18 16 15 14 14 13 11 10 9 8 9 9 10 11 13 14 15 16 16 16 15 14 13 12 12 12 13 14 13 12 12 11 11 10 10 10 11 13 14 15 15 16 16 17 17 18 19 21 23 24 26 29 29 28 29 29 28 26 25 24 23 23 22 21 20 19
9 7 7 9 10 11 11 11 12 13 13 14 13 13 14 14 16 17 17 18 17 16 16 15 14 13 12 10 9 9 10 10 10 12 14 15 16 17 17 16 15 14 13 12 12 13 14 13 12 12 11 10 10 10 9 10 11 13 14 14 15 16 16 16 17 19 21 22 24 26 28 28 27 28 29 29 29 27 25 24 24 23 22 21 20
10 8 7 8 9 9 10 10 12 13 14 14 14 13 14 15 16 17 17 19 19 18 17 17 16 14 13 11 10 10 10 10 10 11 13 14 16 17 17 16 16 15 14 13 13 13 13 13 12 12 11 10 10 9 9 9 10 11 12 14 15 16 15 15 17 18 20 22 23 25 27 27 26 27 28 29 30 29 28 26 25 24 23 23 22
9 8 8 7 8 8 9 10 12 14 14 14 13 13 14 15 16 17 17 19 19 19 18 19 18 16 14 13 11 11 11 10 10 11 12 14 15 17 17 16 16 15 14 13 12 13 14 13 12 12 11 10 10 9 8 8 8 9 10 13 14 13 13 14 16 17 19 21 23 24 25 26 25 25 27 28 28 29 29 29 27 26 25 24 22
10 9 8 8 7 8 9 10 12 13 14 14 13 14 14 15 15 16 17 18 19 20 19 20 19 18 16 14 13 12 12 11 11 11 12 13 15 16 17 16 16 16 15 14 13 13 14 14 13 12 11 11 9 8 8 7 7 7 8 11 12 12 12 13 15 16 18 20 21 22 23 25 24 23 25 26 27 28 28 28 28 28 27 26 25
9 8 8 8 8 8 9 11 12 13 13 13 13 14 14 14 14 15 16 17 19 20 20 20 20 19 17 16 15 14 13 13 12 11 12 13 14 15 16 17 17 16 16 15 15 14 15 14 13 12 11 11 10 8 7 7 6 6 7 9 10 11 10 11 12 14 16 18 20 20 21 23 23 22 23 24 25 26 27 27 27 27 27 27 27
7 7 7 7 7 8 9 11 12 13 13 13 13 13 12 12 13 14 15 16 18 20 20 21 21 20 19 18 17 15 14 13 13 12 12 13 14 15 16 17 18 17 17 16 16 15 15 15 14 13 12 11 10 9 7 7 6 6 6 7 9 9 8 10 10 11 14 16 18 19 19 21 21 20 22 22 23 24 25 25 26 26 26 26 26
6 6 6 5 6 7 8 10 11 11 12 11 11 11 11 11 11 12 14 16 17 19 20 20 20 21 21 20 18 16 15 14 14 13 13 13 13 14 15 16 17 18 18 17 17 16 16 16 15 14 13 11 11 9 8 7 6 6 5 6 8 7 7 9 9 9 12 15 16 17 18 19 19 19 20 21 21 22 23 24 24 25 25 25 25
6 5 5 4 4 5 5 6 7 8 9 10 10 10 10 10 10 11 13 15 16 17 19 20 20 21 21 21 20 17 16 15 15 14 13 13 14 14 14 15 16 17 18 18 18 17 17 17 17 16 14 13 11 10 9 8 7 6 6 5 6 6 6 7 7 7 10 13 14 15 16 17 17 18 18 19 20 20 21 21 22 23 23 24 24
6 5 4 3 3 4 4 5 5 6 7 8 9 9 10 10 11 12 13 14 15 16 18 19 20 21 21 21 20 18 16 15 15 14 13 13 13 14 14 14 15 17 18 19 19 19 19 18 18 17 16 15 13 12 11 10 8 7 7 6 5 6 5 6 5 5 7 10 11 13 14 14 15 16 17 17 18 18 19 19 20 21 22 22 23
6 5 4 4 4 5 6 7 7 7 6 6 7 9 10 10 11 12 12 13 14 15 17 19 20 20 20 20 20 18 16 15 14 13 12 12 12 12 13 13 14 15 17 19 20 21 20 20 19 19 18 17 15 14 13 11 10 9 8 7 6 6 5 5 4 3 4 6 9 10 11 12 13 14 15 16 16 17 17 18 18 19 19 20 21
7 6 6 5 6 7 8 9 9 8 7 7 8 9 10 10 11 11 12 12 13 15 16 18 19 19 19 19 18 17 16 15 13 12 11 11 10 10 10 11 12 13 15 18 20 22 22 21 21 20 20 19 17 16 15 13 12 11 10 9 7 6 6 5 4 4 3 4 6 7 9 10 11 11 12 13 14 15 15 16 16 17 17 18 19
8 7 7 6 7 7 8 9 9 8 8 9 9 10 10 11 11 11 11 12 13 15 16 17 18 18 17 17 16 16 15 14 13 11 10 10 10 9 8 9 10 12 13 15 18 21 22 23 22 22 21 20 20 18 17 16 14 14 13 11 9 8 7 6 5 4 4 3 4 5 6 7 8 9 10 11 12 13 13 14 14 15 15 16 16
9 8 7 7 7 7 8 9 9 9 9 10 10 11 12 12 12 12 12 12 13 14 15 16 17 17 16 16 16 16 15 15 13 11 10 10 10 8 6 6 8 10 12 13 14 18 22 24 24 23 23 22 22 21 20 18 17 16 15 13 11 9 8 7 6 5 4 3 2 2 3 4 5 6 7 8 9 10 11 12 12 13 13 14 14
9 7 6 6 7 8 8 8 9 10 9 9 11 13 13 13 12 12 12 12 13 14 14 15 16 16 16 15 15 15 15 14 13 11 11 10 8 5 2 4 7 8 10 10 11 13 18 23 25 24 24 24 23 23 22 21 19 19 18 15 13 11 10 9 8 6 5 5 4 3 2 1 2 2 3 4 5 6 7 8 9 10 11 12 12
8 6 5 6 7 8 8 8 9 9 9 10 12 13 14 13 13 12 12 13 13 13 13 14 14 14 14 14 14 13 13 13 12 10 9 8 6 4 2 2 6 7 8 9 10 11 13 17 23 25 25 25 25 24 23 23 22 22 21 18 15 13 12 12 10 8 7 7 6 5 4 3 2 1 1 1 2 3 4 5 6 7 8 9 10
7 5 5 7 8 8 8 8 9 10 10 10 12 13 13 13 12 11 12 13 13 12 12 12 12 13 13 13 12 12 12 12 11 9 8 5 4 4 2 2 7 8 7 9 10 11 11 12 17 23 26 26 25 25 24 24 24 24 23 20 17 15 15 14 13 11 10 10 9 8 7 6 6 5 4 4 3 3 4 4 5 6 6 6 7
5 4 5 7 9 9 8 9 10 10 10 10 12 13 12 12 10 10 12 12 12 11 12 12 11 11 12 13 13 13 13 12 10 8 6 4 3 3 1 4 9 9 8 9 10 11 10 10 12 17 23 26 26 25 25 24 25 26 25 22 20 18 17 17 16 14 13 13 12 12 11 10 9 8 7 7 6 5 5 5 6 6 6 6 6
5 5 7 8 9 9 8 9 10 10 10 11 12 13 13 12 10 10 11 10 10 11 12 12 12 12 13 13 14 14 14 12 10 7 5 3 1 0 2 8 11 9 9 9 10 10 10 10 10 12 18 23 25 25 24 24 24 26 26 23 22 21 20 20 19 17 16 16 15 15 15 14 13 12 11 10 9 9 8 7 7 7 7 7 6
6 7 8 8 8 8 8 9 9 9 11 13 14 15 14 12 10 10 9 9 10 12 12 13 13 14 14 14 15 15 13 11 8 5 3 2 2 3 6 10 11 10 10 9 9 9 10 10 9 10 12 17 22 24 24 24 24 26 27 24 23 22 22 22 21 19 19 19 19 18 18 17 16 15 14 13 12 12 11 10 10 9 9 8 8
7 6 6 6 6 6 7 8 8 10 12 14 14 15 14 12 9 9 10 10 11 12 13 14 15 15 14 15 16 14 11 9 7 5 4 5 5 6 9 11 10 10 10 9 9 9 9 9 9 9 10 13 17 22 25 24 25 27 28 25 23 22 22 22 22 21 21 21 21 20 20 20 19 18 17 16 15 15 14 13 13 12 11 10 9
6 4 4 5 5 6 7 7 9 11 13 14 14 16 15 11 9 11 12 12 12 12 13 14 15 14 14 15 15 13 11 9 7 5 5 7 7 9 10 10 9 9 9 9 9 8 8 8 9 9 10 11 14 19 23 25 26 28 27 23 22 21 21 22 22 22 21 21 21 21 21 21 21 20 20 19 18 18 17 16 15 14 13 12 11
4 4 4 5 5 6 8 9 10 12 13 15 16 16 13 10 11 13 13 12 13 13 14 15 16 15 15 16 15 13 11 9 8 6 6 7 9 10 9 8 8 8 8 8 8 8 7 8 9 10 10 11 12 14 19 23 25 25 24 22 21 20 20 20 21 21 21 21 21 22 22 22 22 22 22 21 21 20 19 18 17 16 15 14 13
3 4 5 6 7 8 10 11 12 12 14 16 17 15 12 12 12 12 12 13 14 14 15 17 17 16 16 16 15 13 11 9 8 7 7 8 9 9 8 7 7 7 7 7 8 8 8 7 8 9 10 10 10 11 13 18 22 22 21 20 19 19 19 19 19 20 20 21 21 21 22 22 22 22 22 22 21 21 21 20 19 18 17 16 15
5 5 6 8 8 9 11 12 12 14 15 16 17 14 11 12 12 11 13 13 13 14 17 18 18 18 17 15 14 12 10 9 9 8 8 8 8 8 7 6 5 5 6 7 7 7 8 7 7 8 9 10 10 10 9 12 17 19 19 19 18 17 18 18 19 19 20 20 21 21 21 21 22 22 22 22 22 22 22 22 21 20 18 17 17
8 7 7 9 9 8 10 11 13 14 15 16 16 13 11 12 12 10 13 13 15 17 19 20 19 18 16 14 12 11 10 10 9 8 8 8 8 7 6 5 4 3 5 6 7 6 7 7 7 7 8 9 10 9 8 8 11 14 17 17 17 17 17 17 18 19 19 19 20 19 19 20 21 22 22 22 22 21 22 22 22 21 20 19 18
11 10 7 8 7 6 8 10 11 13 13 13 13 11 10 11 10 10 12 14 16 18 20 22 21 18 15 13 11 10 10 9 8 8 8 8 7 7 7 5 4 4 5 6 6 6 6 6 7 7 6 6 7 7 7 7 8 11 14 14 14 14 15 16 16 17 17 17 17 16 17 18 19 19 19 19 19 19 20 21 21 21 21 19 19
11 11 7 7 6 6 8 8 9 12 14 12 11 10 12 11 9 8 10 12 14 18 20 22 21 19 16 14 11 10 10 9 8 8 8 7 7 7 7 5 5 5 5 6 7 7 7 7 7 7 5 5 5 6 7 8 10 12 13 12 11 11 13 14 15 15 15 14 14 15 16 17 17 17 17 17 16 16 17 18 19 19 19 19 18
6 6 7 7 7 8 8 6 7 10 11 10 10 11 12 11 9 8 8 9 12 17 20 20 20 18 17 15 13 12 11 10 10 10 9 7 7 7 6 6 5 4 5 6 7 8 8 8 8 7 6 5 6 7 7 8 10 12 15 13 11 11 11 13 15 15 12 11 12 15 16 16 16 16 16 15 14 14 15 16 17 18 18 18 18
2 3 7 7 7 8 6 5 6 6 7 9 11 12 12 11 10 9 10 13 14 15 16 15 16 15 15 15 13 12 12 12 12 11 9 8 7 7 7 7 6 4 5 6 8 8 6 7 9 9 8 7 7 7 7 8 10 13 15 13 11 10 12 15 15 11 9 9 12 13 12 12 11 12 12 12 12 12 13 14 16 16 16 17 17
2 2 5 6 6 7 6 5 6 8 9 11 13 13 13 13 12 12 15 16 15 15 15 14 14 13 12 12 11 11 12 13 12 11 10 9 8 7 7 7 6 5 5 6 7 7 5 6 8 9 9 8 9 9 8 9 12 14 12 10 9 9 12 14 9 4 5 8 10 9 8 8 8 9 10 10 10 11 12 13 14 14 15 15 16
4 4 6 6 6 7 7 6 9 12 13 15 15 14 16 16 15 16 17 16 14 13 12 12 12 11 11 12 12 13 13 13 12 12 12 10 9 8 8 9 6 5 6 7 7 7 6 6 7 7 7 8 10 9 8 8 11 11 9 8 8 8 11 9 2 1 3 6 8 7 6 6 7 8 8 8 10 11 12 12 12 12 13 14 15
5 5 5 5 4 6 7 9 11 13 15 16 16 16 18 18 18 18 17 15 14 13 13 12 12 12 12 13 13 14 14 13 13 12 12 11 10 9 10 9 8 6 7 8 8 8 8 7 8 8 8 10 11 9 8 8 8 8 8 7 7 8 9 6 2 2 2 5 6 5 5 6 6 7 7 8 10 11 12 12 12 12 13 14 14
5 4 3 3 4 6 9 12 13 14 16 16 17 18 19 20 20 19 17 15 14 14 13 13 12 11 11 11 12 13 14 13 13 12 12 11 10 10 10 10 9 8 8 8 9 9 9 9 9 9 8 11 12 10 10 8 7 8 8 8 8 8 8 6 3 3 3 4 4 3 4 4 4 5 5 7 9 10 10 11 12 13 13 14 14
4 3 1 2 5 9 12 12 13 14 15 16 16 18 20 20 19 18 15 13 12 12 11 11 10 8 7 6 8 10 11 12 12 12 12 12 11 12 12 11 9 9 9 9 9 9 9 10 10 9 10 11 12 12 11 9 9 10 9 9 9 9 8 5 3 4 5 5 4 4 4 4 4 4 5 7 8 9 9 10 11 12 13 14 14
3 3 2 4 8 11 12 11 12 12 13 14 14 16 18 19 18 16 13 12 11 11 10 9 7 6 6 5 5 6 7 9 10 11 12 12 13 13 12 11 11 11 11 11 10 10 11 11 11 11 12 12 12 12 12 11 10 11 10 10 10 9 8 5 5 5 5 6 5 5 4 4 5 6 7 7 8 7 8 8 9 9 10 11 12
3 4 5 9 11 11 10 10 10 11 12 12 12 14 16 17 17 16 14 13 12 11 11 9 8 7 6 4 3 3 5 7 8 10 11 12 13 13 12 12 13 12 12 11 10 11 12 13 12 12 12 13 12 11 11 11 11 11 11 10 10 9 7 6 6 7 7 7 6 5 5 5 6 7 8 8 7 7 7 7 6 6 7 7 9
4 5 9 12 12 10 10 9 9 12 13 13 13 15 16 15 15 16 15 15 14 14 13 12 11 9 7 5 4 4 4 6 7 8 9 10 12 12 12 13 13 12 12 10 10 12 13 13 13 12 12 12 12 11 11 11 11 12 12 10 9 8 8 8 7 8 8 7 7 6 6 6 7 8 7 7 6 6 6 5 4 4 5 5 7
6 7 12 13 11 11 11 10 11 11 12 15 16 17 18 17 16 16 16 15 15 15 14 13 12 10 8 6 5 5 5 6 7 7 8 9 10 11 12 11 11 11 12 11 10 12 13 14 13 13 13 13 12 12 12 12 12 13 12 10 10 9 9 9 9 9 9 8 7 7 8 8 8 7 6 6 6 6 5 4 4 4 4 5 6
7 9 12 12 11 12 13 13 12 11 13 17 19 19 18 18 17 17 16 15 14 14 13 13 12 11 9 8 6 5 4 4 6 6 7 8 9 10 10 10 10 11 11 11 10 12 14 14 13 13 14 13 12 12 13 13 13 12 11 10 10 9 9 10 11 10 10 9 7 7 7 7 7 7 6 6 6 5 4 4 5 5 5 5 5
8 9 11 11 11 13 14 14 13 13 15 19 20 19 18 18 18 17 16 15 13 12 12 11 11 10 9 8 7 6 5 4 4 5 5 6 8 9 9 10 11 11 11 11 11 12 13 13 12 12 13 13 13 13 13 13 12 12 11 11 10 9 10 12 12 12 10 9 8 7 5 4 5 7 7 7 7 6 5 6 7 7 7 6 5
10 11 12 11 13 14 14 14 14 15 18 20 21 19 17 16 15 14 13 11 10 10 11 10 9 8 7 6 5 5 5 5 3 3 4 5 7 8 9 10 11 12 12 12 12 13 13 13 13 13 13 13 13 13 12 12 11 11 12 12 11 11 12 12 12 12 10 9 9 8 6 5 7 8 8 7 7 6 6 8 9 9 8 6 5
12 13 13 13 15 15 14 14 15 17 20 21 21 19 17 15 14 12 10 9 8 8 8 8 7 6 5 4 3 2 3 4 3 2 2 4 7 9 10 11 11 11 13 13 12 13 13 14 14 13 12 12 13 13 13 12 12 12 13 14 14 14 14 12 11 11 9 9 10 9 8 7 7 7 7 7 6 5 6 8 9 9 8 7 7
12 12 12 15 17 16 15 14 15 17 19 19 19 18 16 15 14 12 10 9 8 6 6 6 5 4 4 3 2 1 1 2 2 1 1 2 4 6 8 10 10 11 11 11 11 12 13 14 13 12 12 13 14 14 14 13 13 13 14 14 15 15 14 12 12 11 9 9 8 8 7 7 7 7 6 5 5 5 6 8 8 7 7 7 7
12 11 12 16 17 16 16 14 14 16 16 16 16 16 15 15 13 11 9 8 7 5 5 4 4 3 2 1 0 0 1 1 1 1 1 1 1 1 4 7 9 11 10 10 10 11 12 12 12 12 13 14 14 14 14 13 12 13 13 13 14 14 14 13 13 12 10 8 7 7 7 6 7 7 5 3 4 5 7 7 5 5 5 5 5
13 12 13 17 18 17 16 15 15 16 16 16 16 14 14 14 12 10 8 7 6 5 3 2 1 0 1 3 3 4 3 3 3 3 2 2 2 1 1 4 7 9 10 11 11 11 12 12 12 12 12 13 12 12 12 12 12 13 12 12 13 13 13 12 12 12 10 9 7 7 8 7 6 6 5 3 5 6 7 6 4 4 3 3 2
14 14 14 17 18 18 17 15 15 17 17 18 17 14 14 15 13 10 9 7 6 5 3 2 2 3 4 6 7 8 7 6 5 4 3 2 1 0 0 2 4 6 9 11 12 12 13 12 11 12 12 12 12 12 12 12 13 13 12 12 13 12 11 10 10 10 9 8 7 8 9 8 6 5 5 5 8 9 7 6 5 4 3 2 1
Wind_Direction
141 150 167 190 193 193 202 211 213 213 213 215 218 222 225 225 223 217 215 213 215 217 203 188 173 165 160 158 163 160 158 154 152 153 157 158 155 153 153 153 153 151 146 139 135 130 123 122 123 119 113 108 102 98 94 90 85 82 80 79 79 78 77 75 73 72 70 69 68 67 63 60 60 60 61 64 67 70 76 79 83 93 99 99 102
139 156 182 197 196 194 201 209 212 213 213 215 218 221 225 225 222 216 214 213 213 213 200 186 176 166 159 156 159 162 162 159 157 156 161 161 157 157 158 159 158 156 150 144 140 134 128 127 128 125 121 115 108 103 98 90 85 84 82 82 82 81 80 77 75 73 71 69 68 68 65 61 60 61 61 63 66 69 74 79 83 88 91 94 97
144 177 199 205 202 198 201 207 210 212 215 217 219 220 225 226 224 218 214 214 210 207 198 186 178 170 160 154 154 159 164 163 162 161 164 164 162 162 164 164 162 161 156 149 144 138 133 132 134 132 126 119 112 106 100 95 93 90 87 86 85 83 81 79 77 75 73 71 70 70 68 63 61 61 62 64 67 68 72 76 80 83 87 90 92
161 197 207 210 205 202 203 205 210 212 217 218 220 220 224 227 224 220 215 213 208 204 198 188 181 174 163 157 157 156 160 164 167 166 167 167 166 167 169 168 167 165 160 154 149 144 138 139 141 138 131 125 120 113 109 106 102 97 92 88 86 85 82 80 78 77 75 73 72 71 70 66 63 62 63 65 67 68 70 74 77 79 82 85 86
186 204 203 207 206 207 205 206 211 213 217 218 220 221 224 227 225 221 216 213 208 202 197 190 183 178 170 165 163 159 157 161 168 170 171 171 170 172 173 172 170 168 165 161 155 151 145 146 149 145 141 135 129 124 119 114 109 104 97 91 89 87 84 82 80 80 78 76 74 72 72 69 65 64 64 65 66 68 69 71 74 76 77 79 81
190 196 191 199 207 212 211 209 211 213 216 217 218 221 225 226 225 222 217 213 209 203 198 193 187 182 177 173 173 164 158 158 165 171 174 175 174 176 176 175 174 172 171 167 161 157 151 152 157 154 150 143 138 134 127 120 114 110 102 97 94 90 88 86 83 82 80 78 76 73 72 70 67 66 65 65 66 67 68 70 72 74 75 76 76
188 187 185 191 205 215 215 213 212 214 215 216 218 222 225 226 227 224 220 215 209 205 199 195 191 187 183 181 183 172 162 158 160 167 174 178 179 179 180 179 177 176 173 172 167 163 159 161 166 162 157 152 146 141 134 126 120 115 108 104 98 92 91 90 86 83 82 80 77 75 73 71 69 68 68 67 67 66 67 69 71 73 74 75 75
191 186 181 184 198 208 212 213 213 215 216 217 221 226 228 228 228 226 223 218 211 207 203 198 194 191 188 188 190 180 169 165 162 165 172 179 182 181 182 182 182 180 176 176 173 169 166 169 175 169 165 161 154 149 143 134 127 122 114 108 100 94 92 91 87 85 83 81 78 76 74 72 68 69 70 69 68 68 68 68 69 71 73 74 75
193 187 178 176 188 199 205 211 214 215 217 220 225 229 230 229 229 228 226 222 215 209 206 201 197 195 191 193 196 187 177 172 169 168 171 178 183 184 185 185 186 185 181 180 179 176 174 178 183 177 173 168 162 160 155 147 138 131 121 111 105 100 95 91 89 87 85 81 78 77 76 73 69 69 71 70 70 69 69 68 68 69 71 72 73
189 183 176 174 184 194 202 208 213 216 219 224 228 231 231 231 230 230 229 226 219 213 209 205 200 198 195 197 199 192 185 179 175 175 175 179 183 185 187 188 189 189 186 185 184 183 180 185 189 185 182 175 171 172 167 160 152 144 131 117 111 105 98 93 90 89 86 82 79 78 78 75 71 71 71 71 71 71 71 70 70 70 70 71 71
179 182 182 181 190 199 206 211 214 217 221 226 231 234 235 234 234 234 233 229 224 217 212 209 205 202 200 201 202 196 189 185 181 181 181 183 184 187 190 190 191 191 190 190 190 189 186 191 194 192 192 185 181 182 180 172 164 158 146 130 118 108 104 101 95 93 89 84 81 77 77 75 72 71 71 71 71 71 72 72 71 70 70 70 70
167 179 183 186 197 210 218 222 225 226 229 232 236 238 238 238 239 239 238 233 228 221 216 213 209 206 205 205 205 198 192 190 186 186 185 186 187 190 193 193 194 194 193 194 194 195 193 195 199 197 197 197 193 191 192 187 179 171 164 149 131 119 116 111 101 98 94 87 82 78 75 74 73 70 70 69 69 69 70 71 71 71 70 70 70
168 177 176 183 198 215 226 235 240 245 245 243 243 242 242 243 244 244 241 235 229 224 219 216 213 212 210 209 210 203 195 195 191 190 188 186 189 192 195 197 199 198 197 197 197 199 199 200 203 202 202 205 204 201 201 198 194 187 182 168 143 135 126 116 105 98 97 89 83 80 75 73 73 71 69 68 67 67 66 67 68 70 70 70 70
178 191 186 199 218 234 244 251 251 253 250 248 249 248 249 248 247 243 238 234 229 224 221 219 217 215 214 213 213 209 202 199 195 192 191 187 188 191 195 199 203 204 203 201 200 201 203 204 206 207 206 208 209 208 208 205 205 202 197 188 162 148 135 123 112 95 95 92 86 82 76 73 72 70 68 66 66 65 64 63 63 65 67 68 68
186 198 202 219 233 252 257 259 256 249 246 247 250 248 247 245 243 239 234 230 227 224 223 222 219 217 216 216 215 212 208 202 197 193 191 188 187 190 193 198 206 210 210 208 205 204 206 206 208 211 210 210 211 212 213 212 211 211 208 203 185 163 154 144 133 115 101 97 91 84 79 74 71 70 67 65 63 63 62 61 59 58 60 62 64
194 202 210 221 230 245 252 255 254 251 248 246 243 239 237 235 233 232 230 226 223 224 224 222 219 217 216 217 216 213 210 204 197 193 190 187 183 185 189 195 205 214 219 217 212 207 208 209 210 213 214 214 213 214 215 216 217 217 214 211 203 185 177 167 155 153 135 110 101 91 86 81 75 72 67 64 62 60 59 59 57 56 54 55 57
197 201 210 222 232 240 245 249 248 247 247 243 238 232 229 225 224 226 226 224 223 224 223 221 218 216 215 215 214 211 207 202 197 192 187 183 177 177 186 194 203 214 222 224 220 213 211 211 213 215 216 217 217 217 217 219 221 221 219 216 213 203 195 185 177 178 175 149 118 105 98 91 84 78 71 66 62 59 57 55 54 53 52 50 50
197 205 215 226 235 243 247 244 242 245 248 245 237 228 226 221 219 220 222 223 222 224 223 220 218 215 214 213 211 208 203 199 197 191 183 180 178 170 179 207 211 214 219 225 226 219 216 215 215 216 218 220 220 220 220 221 223 225 223 219 217 215 212 205 199 197 199 199 168 129 115 100 92 87 79 70 63 59 54 52 50 48 48 46 45
203 211 220 230 239 247 246 242 244 249 251 247 236 227 225 221 218 217 218 221 221 223 224 221 218 215 213 212 210 207 203 199 196 189 180 179 178 158 155 236 230 218 218 224 227 224 220 218 217 218 220 222 223 223 223 224 226 228 227 222 220 221 224 222 218 215 216 224 229 229 200 139 95 89 82 71 61 51 45 45 43 42 42 40 40
215 218 229 243 247 247 243 247 252 254 254 246 234 228 229 222 216 218 219 220 221 222 224 223 219 216 213 211 207 203 199 195 190 182 177 177 166 136 126 265 258 237 223 225 227 226 221 219 219 219 221 223 225 226 225 226 228 231 230 226 223 224 228 231 231 230 233 237 240 243 245 252 270 287 326 28 34 23 18 19 21 26 29 31 34
221 226 242 249 248 247 245 252 257 258 257 245 234 230 230 225 218 221 223 221 221 222 223 225 222 215 212 207 200 194 190 185 179 170 166 161 131 117 130 279 275 257 239 233 231 231 224 219 219 220 221 223 226 227 227 228 230 233 233 229 228 227 230 235 238 239 243 246 249 252 257 263 269 277 288 298 314 333 340 345 350 356 4 12 18
224 231 240 242 242 245 246 251 256 259 251 238 235 234 232 231 226 224 224 222 222 223 223 221 217 209 204 201 195 186 180 174 166 159 151 137 113 114 156 273 270 260 250 244 239 239 235 227 220 218 221 223 225 227 228 229 231 235 235 231 231 230 232 236 240 245 250 252 255 258 261 263 268 273 278 286 292 298 307 316 325 329 335 342 349
221 223 230 235 237 244 248 250 256 254 244 237 233 231 234 234 231 229 224 223 224 222 217 211 205 199 198 194 186 178 172 166 159 153 145 136 129 41 283 272 265 258 252 246 242 244 245 241 228 218 219 221 223 225 228 229 231 235 236 232 231 231 234 237 241 246 251 255 258 261 263 265 269 273 274 277 282 286 292 299 307 310 313 316 320
219 222 228 235 240 246 250 253 257 248 240 241 230 220 227 235 238 236 226 223 223 217 209 204 200 196 195 186 176 172 169 167 164 161 168 207 261 286 277 268 262 255 250 244 241 242 245 248 241 225 217 218 221 223 226 228 231 235 236 232 230 231 235 239 243 247 251 256 260 263 267 269 271 274 275 276 277 281 286 291 296 299 301 300 301
225 230 238 245 251 252 251 253 254 242 233 233 226 221 231 243 244 233 221 216 216 213 204 198 198 194 191 184 176 174 176 182 186 192 224 247 260 265 262 260 257 250 245 240 239 240 241 244 245 234 220 216 217 219 223 225 229 234 236 233 232 233 235 241 245 249 252 255 260 265 269 272 274 277 279 279 280 281 284 287 290 293 293 291 291
231 241 254 257 254 249 242 242 241 236 233 230 231 235 238 238 229 222 218 208 204 209 205 196 191 189 188 185 179 182 189 195 201 206 228 246 251 252 252 253 251 244 240 238 236 236 237 239 244 241 228 221 219 218 220 222 226 233 237 236 234 234 236 240 244 249 252 256 259 263 267 270 273 277 279 280 281 282 282 284 287 289 289 287 285
230 252 258 255 244 236 232 231 231 230 237 238 239 240 233 228 227 227 223 210 203 203 203 194 184 183 187 186 185 189 193 196 202 206 222 239 245 246 246 248 247 240 238 239 235 232 234 236 242 246 238 227 225 225 223 223 226 232 237 238 237 236 237 240 244 248 252 255 257 261 264 268 271 273 276 278 280 282 283 284 285 286 286 284 282
236 261 256 251 236 231 233 231 230 228 233 240 241 237 229 231 227 219 218 214 209 201 197 192 182 184 189 190 192 193 195 198 204 213 227 241 247 245 241 243 246 241 239 240 237 232 233 236 237 245 246 236 230 231 230 227 227 230 235 238 237 238 239 241 243 247 250 253 256 259 263 266 269 271 272 274 277 279 282 284 285 283 281 280 280
245 250 253 252 238 233 235 233 236 231 225 234 240 236 232 228 215 210 218 217 214 206 196 188 182 186 190 191 193 195 202 207 209 217 232 243 243 238 238 241 241 241 240 238 237 233 233 235 234 241 246 240 232 232 233 232 230 230 233 236 237 238 240 242 244 246 250 254 257 260 263 267 268 269 270 272 274 277 279 281 282 281 277 276 276
263 249 240 244 243 239 238 241 248 242 232 234 238 240 234 221 213 220 225 219 218 210 195 186 182 184 189 192 192 197 207 210 211 221 231 235 232 229 228 231 227 230 236 232 231 230 227 227 230 235 238 237 232 231 235 236 235 233 233 233 234 237 241 244 248 250 253 256 258 261 265 269 270 271 271 272 273 274 276 277 277 277 275 274 273
292 285 261 251 252 249 257 260 256 251 244 232 234 238 221 214 223 229 227 223 221 212 196 188 186 185 186 190 190 196 207 209 216 226 229 229 229 226 218 222 225 223 233 231 227 226 216 213 225 231 231 233 232 232 233 235 240 238 233 229 230 235 240 245 249 251 253 254 257 263 268 271 273 274 274 273 271 271 272 272 272 272 273 272 270
301 307 304 285 269 257 264 265 254 255 248 226 221 220 203 209 224 223 222 220 214 210 204 198 196 193 189 188 187 196 209 213 224 229 229 228 230 228 218 221 226 225 235 233 225 223 214 208 219 228 224 221 229 229 221 224 236 239 236 230 227 232 238 243 247 247 249 254 261 266 269 270 273 275 275 274 272 270 269 269 268 268 270 270 268
309 320 320 296 266 259 253 244 252 257 243 215 201 196 193 200 203 207 207 191 188 198 205 206 202 195 191 192 193 202 213 216 227 231 229 227 226 228 220 216 223 222 227 225 220 223 222 215 216 223 221 212 216 213 208 220 229 230 231 229 225 230 239 244 244 245 251 261 268 267 266 269 272 272 271 273 272 270 267 267 267 267 267 267 267
310 319 313 282 254 261 250 235 244 233 215 196 187 183 184 188 188 191 176 159 161 169 175 181 180 179 185 192 197 208 217 219 227 228 225 226 223 224 222 217 217 210 211 210 212 217 221 217 214 219 225 223 217 205 203 220 221 217 221 223 224 230 236 241 241 245 258 267 266 263 263 267 269 265 263 266 268 266 265 265 267 267 267 267 266
214 265 279 256 238 236 225 220 211 192 185 181 179 176 178 180 174 165 156 152 152 149 148 153 160 168 179 190 201 212 220 223 226 223 221 223 219 218 223 224 216 203 205 206 208 212 209 209 211 216 225 227 215 203 199 215 220 213 211 216 223 226 232 239 243 244 252 255 255 252 251 257 260 259 260 262 264 264 263 263 265 268 268 268 266
245 247 235 234 227 214 201 195 187 178 175 172 170 170 170 166 156 149 149 151 149 147 151 157 165 179 192 200 207 212 217 220 221 218 218 218 213 211 217 222 218 207 209 210 207 206 199 194 201 209 213 206 197 195 195 211 219 210 204 215 222 229 241 248 245 153 223 240 249 246 243 249 252 260 266 266 265 264 262 262 266 270 270 268 267
268 256 234 222 215 207 188 176 172 169 167 162 158 158 156 152 149 147 150 153 155 159 166 174 185 198 206 209 210 212 215 216 217 216 215 215 214 213 215 217 216 213 214 215 207 204 202 188 190 200 196 185 181 186 197 208 215 208 203 213 220 235 250 254 226 196 211 227 244 240 234 241 244 255 265 266 267 265 263 264 268 271 271 270 270
258 258 252 220 210 192 175 166 162 159 156 153 151 150 149 149 152 155 160 163 163 167 175 184 194 200 204 208 213 216 216 214 215 215 213 214 215 215 216 215 212 213 215 214 206 208 210 194 192 196 189 184 179 182 193 198 208 209 203 207 220 234 243 245 231 207 188 198 215 217 224 233 235 246 255 258 259 262 266 268 269 270 271 273 274
246 236 226 217 201 177 167 163 161 160 155 153 153 152 153 155 157 161 166 166 164 170 178 183 186 184 183 190 203 211 211 205 204 209 210 209 212 213 214 212 207 207 207 203 200 209 206 192 189 187 184 183 178 181 188 191 202 207 204 207 218 229 234 235 216 194 193 205 211 215 230 236 237 245 247 250 254 262 272 271 271 271 272 274 276
224 198 194 195 187 174 170 166 164 164 161 158 153 152 157 159 160 163 163 159 160 164 165 164 156 144 144 155 178 195 199 197 199 204 205 205 209 213 212 207 203 202 200 194 194 200 196 186 181 178 183 184 176 181 189 192 202 207 204 204 209 218 226 224 207 202 216 232 233 228 235 240 244 252 251 255 265 274 278 276 278 278 276 276 278
205 187 178 176 177 178 182 177 168 163 161 161 155 153 158 159 159 157 154 151 148 145 140 133 122 117 124 134 146 162 178 188 196 200 198 200 207 212 209 204 203 201 200 199 195 194 194 191 184 180 189 191 183 187 194 198 206 207 200 199 207 215 225 230 222 217 223 231 234 238 247 251 257 262 261 267 279 284 281 282 290 292 288 287 289
187 180 169 169 176 182 188 182 170 162 161 166 163 160 159 155 152 147 145 143 137 131 124 115 110 109 115 123 125 128 153 176 189 195 194 196 204 209 208 204 204 201 201 203 197 196 200 196 188 187 194 195 193 197 202 206 212 209 199 197 210 219 224 231 235 236 233 231 236 245 253 258 264 267 269 275 282 284 282 286 302 309 304 301 305
182 177 166 168 180 186 183 173 167 165 166 169 168 165 159 150 144 142 140 140 135 128 120 113 110 108 108 113 120 125 139 166 184 192 190 193 199 204 207 205 202 202 203 203 199 200 204 197 191 193 194 196 200 202 205 209 211 211 207 206 215 220 223 231 243 250 245 243 249 255 258 258 261 266 268 270 274 279 283 294 311 312 303 300 314
181 173 166 171 184 185 176 167 167 168 170 170 167 164 158 150 146 145 143 140 134 126 121 118 115 113 110 108 112 125 141 162 180 189 191 194 196 201 208 206 202 205 207 205 201 201 203 200 197 196 194 199 206 206 209 211 210 214 218 221 222 221 228 239 248 253 253 254 255 260 268 268 262 258 256 256 260 267 279 295 299 286 281 289 309
171 166 167 174 181 181 174 170 171 169 169 168 166 163 159 155 152 149 146 142 136 129 122 118 116 114 112 109 108 115 131 150 168 180 188 195 198 205 212 209 207 209 209 206 198 196 203 208 206 200 197 203 210 211 213 214 213 217 222 226 226 224 233 242 247 252 253 251 248 249 253 250 247 245 241 240 247 257 271 280 277 269 271 281 294
166 164 169 170 173 176 175 175 175 170 168 167 166 164 160 156 153 153 152 147 140 130 122 117 114 112 112 113 111 109 114 121 136 164 184 196 202 208 213 212 208 204 205 206 197 192 200 210 211 206 203 206 212 215 218 219 221 224 224 224 225 223 230 239 247 253 251 242 239 238 232 232 241 243 239 237 244 259 268 267 266 265 268 269 268
168 167 169 167 167 171 174 176 176 172 170 170 169 167 162 157 158 163 162 150 141 134 129 121 112 112 116 117 118 105 95 94 95 115 166 192 202 207 212 215 213 207 206 205 198 193 196 205 211 210 210 213 217 220 223 225 228 228 224 223 222 222 230 241 245 247 243 235 231 231 239 250 249 242 242 247 255 263 260 257 258 260 261 259 256
169 166 167 166 164 167 172 174 176 176 173 172 172 170 171 170 169 175 172 157 152 149 139 125 115 115 117 117 120 79 42 67 82 91 122 184 196 203 210 214 215 216 213 207 202 199 197 202 209 211 213 217 221 224 224 224 227 226 220 219 221 224 233 242 244 243 239 233 233 232 239 248 247 246 248 252 254 248 245 251 254 254 253 254 257
166 163 166 168 166 167 175 178 179 180 177 177 178 179 187 188 182 185 185 176 173 169 154 138 130 125 117 135 167 276 296 332 356 355 358 352 353 219 216 216 216 218 217 210 205 204 201 199 205 212 217 221 225 224 222 223 225 222 217 217 224 231 239 242 245 248 245 241 245 245 240 235 239 250 254 243 231 227 236 244 247 248 246 249 257
168 168 168 173 174 173 177 183 182 181 182 182 183 189 195 192 186 189 194 197 198 193 183 167 154 173 313 301 293 281 268 270 283 299 330 351 357 356 269 227 219 218 216 211 202 200 200 199 204 214 221 227 231 229 227 228 227 225 222 222 229 239 248 251 249 248 246 245 248 250 247 234 230 247 252 228 207 212 227 230 222 227 229 230 238
176 174 173 178 182 180 178 181 182 182 185 185 186 192 191 185 185 194 200 206 213 215 221 246 297 315 313 304 294 282 267 251 246 256 272 294 298 296 268 235 220 218 218 212 203 199 202 206 214 223 228 232 234 234 233 232 231 231 229 228 229 233 240 246 245 242 241 243 249 252 251 245 240 244 234 211 208 213 222 222 215 222 230 220 187